Regional Weather Roundup
Issued by NWS

Home | Current Version | Previous Version | Graphics & Text | Print | Product List | Glossary On
Versions: 1 2 3 4 5 6 7 8 9 10 11 12 13 14 15 16 17 18 19 20 21 22 23 24 25 26 27 28 29 30 31 32 33 34 35 36 37 38 39 40 41 42 43 44 45 46 47 48 49 50
826
ASUS43 KLOT 270709
RWRIL

ILLINOIS REGIONAL WEATHER ROUNDUP
NATIONAL WEATHER SERVICE CHICAGO/ROMEOVILLE IL
200 AM CDT TUE JUN 27 2017

NOTE: "FAIR" INDICATES FEW OR NO CLOUDS BELOW 12,000 FEET WITH NO
SIGNIFICANT WEATHER AND/OR OBSTRUCTIONS TO VISIBILITY.

* THESE STATIONS ARE NOT UNDER NWS QUALITY CONTROL. THEY ALSO MAY NOT
  REPORT WEATHER SUCH AS PRECIPITATION OR FOG.

ILZ001-002-007-009-015-016-024-270800-
NORTHWEST ILLINOIS

CITY           SKY/WX    TMP DP  RH WIND       PRES   REMARKS
MOLINE         PTCLDY    50  45  83 CALM      30.13F
STERLING*      CLEAR     50  48  93 CALM      30.13S
SAVANNA*       PTCLDY    49  47  95 CALM      30.13S
$$

ILZ003-004-008-010-011-017-018-270800-
NORTH CENTRAL ILLINOIS

CITY           SKY/WX    TMP DP  RH WIND       PRES   REMARKS
ROCKFORD       PTCLDY    51  46  83 CALM      30.14R
FREEPORT*      CLEAR     50  44  79 W3        30.14S
ROCHELLE*      PTCLDY    48  46  92 SW3       30.13S
DE KALB*       CLEAR     51  45  79 W5        30.12S
PERU*          PTCLDY    50  46  84 CALM      30.13S
$$

ILZ005-006-012>014-019>023-270800-
NORTHEAST ILLINOIS

CITY           SKY/WX    TMP DP  RH WIND       PRES   REMARKS
CHICAGO-OHARE  PTCLDY    56  46  69 W7        30.09F
CHICAGO-MIDWAY CLEAR     57  46  66 NW5       30.09F
AURORA         CLEAR     49  45  86 W5        30.12S
LANSING*       CLEAR     54  44  68 NW3       30.10F
JOLIET*        CLEAR     49  47  92 CALM      30.11S
WAUKEGAN       CLEAR     51  47  86 CALM      30.09S
DUPAGE AIRPORT PTCLDY    53  46  77 CALM      30.10F
WHEELING       CLEAR     55  48  77 NW5       30.11S
MORRIS*        CLEAR     52  45  75 W3        30.10F
ROMEOVILLE*    CLEAR     54  44  70 W3        30.11S
NORTHERLY ISL    N/A     60  44  55 W5          N/A
$$

LMZ740>746-270800-
SOUTHERN LAKE MICHIGAN

STATION/POSITION SKY/WX   TEMP    WIND        PRES    VSBY  WAVE
                          AIR SEA DIR/SP/G                  HT/PER
                          (F)     (DEG/KT/KT) (MB)    (MI)  (FT/S)
SOUTHERN BUOY              58 61  360/ 12/ 14 1018.4          3/ 5
WILMETTE HARBOR            60 62  310/  8/ 12   N/A           2/ 5
HARRISON CRIB              61     320/  9/ 11   N/A
BURNHAM HARBOR             60                   N/A
CALUMET HARBOR             58     270/  2/  5 1018.6S
BURNS HARBOR               62     340/ 12/ 15 1019.3S
MICHIGAN CITY              60     320/ 16/ 18   N/A
MICHIGAN CITY 6N           61 65  330/ 16/ 19   N/A           4/ 5
ST. JOSEPH                 60 68  360/ 14/ 17 1018.7          4/ 5
$$

ILZ025>027-034>036-040-047-049-050-058-095>099-270800-
WEST-CENTRAL ILLINOIS

CITY           SKY/WX    TMP DP  RH WIND       PRES   REMARKS
QUINCY         CLEAR     56  54  93 N6        30.13S
GALESBURG*     CLEAR     49  49 100 CALM      30.15S FOG
MACOMB*        CLEAR     50  48  95 CALM      30.16F
JACKSONVILLE*  CLEAR     53  50  91 CALM      30.13S
PITTSFIELD*    CLEAR     57  55  91 CALM      30.14S
$$

ILZ028>032-037-038-041>044-048-051>054-059>061-270800-
CENTRAL ILLINOIS

CITY           SKY/WX    TMP DP  RH WIND       PRES   REMARKS
PONTIAC        CLEAR     53  52  97 CALM      30.13F
BLOOMINGTON    CLEAR     55  51  86 N6        30.14F
DECATUR        CLEAR     57  51  80 NW6       30.13S
PEORIA         CLEAR     52  52 100 CALM      30.13F
LACON*         CLEAR     48  48  97 CALM      30.13S
LINCOLN*       PTCLDY    55  55 100 CALM      30.14S
SPRINGFIELD    PTCLDY    55  53  93 CALM      30.13S
TAYLORVILLE    PTCLDY    52  51  97 CALM      30.12F
$$

ILZ033-039-045-046-055>057-062-063-270800-
EAST-CENTRAL ILLINOIS

CITY           SKY/WX    TMP DP  RH WIND       PRES   REMARKS
CHAMPAIGN      CLEAR     52  48  86 NW3       30.12F
RANTOUL*       CLEAR     55  53  94 NW5       30.12F
MATTOON        PTCLDY    55  53  93 NW3       30.11F
PARIS*         CLEAR     51  50  93 W3        30.12F
$$

ILZ079-100>102-270800-
SOUTHWEST ILLINOIS

CITY           SKY/WX    TMP DP  RH WIND       PRES   REMARKS
ALTON          CLEAR     53  53 100 CALM      30.14S
BELLEVILLE     CLEAR     57  53  88 CALM      30.13F
CAHOKIA*       CLEAR     57  53  86 CALM      30.13S
SPARTA*        CLEAR     57  53  87 CALM      30.14R
$$

ILZ064>066-069>071-074>076-080>082-084>086-088>090-092>094-270800-
SOUTH-CENTRAL ILLINOIS

CITY           SKY/WX    TMP DP  RH WIND       PRES   REMARKS
CARBONDALE     CLEAR     58  58 100 CALM      30.11F
CAIRO*         CLOUDY    65  59  82 CALM      30.10F
EFFINGHAM*     CLEAR     54  54 100 CALM      30.14S
MARION         CLEAR     57  57 100 CALM      30.12F
MT. VERNON     CLEAR     53  52  96 CALM      30.13
CENTRALIA*     CLEAR     54  53  97 CALM      30.12S
SALEM*         PTCLDY    55  53  92 CALM      30.13S
METROPOLIS*    CLOUDY    64  60  86 N3        30.11S
$$

ILZ067-068-072-073-078-083-087-091-270800-
SOUTHEAST ILLINOIS

CITY           SKY/WX    TMP DP  RH WIND       PRES   REMARKS
LAWRENCEVILLE  CLEAR     56  55  97 CALM      30.12S
FLORA*         CLEAR     54  51  90 CALM      30.13S
FAIRFIELD*     CLEAR     54  53  97 CALM      30.12S
HARRISBURG*    CLEAR     58  54  88 CALM      30.12S
ROBINSON*      CLEAR     50  49  97 S3        30.13S
CARMI*         CLEAR     56  55  95 CALM      30.11S
$$

ABBREVIATIONS USED IN REMARKS
   TC - TEMPERATURE IN CELSIUS
  WCI - WIND CHILL INDEX
   HX - HEAT INDEX
  VSB - VISIBILITY
$$





USA.gov is the U.S. government's official web portal to all federal, state and local government web resources and services.